Location: Young's Pond
(41.2695°N, 72.7766°W)
Time: 04:32:59
(UTC-04:00)

Spot 4 - Visible Passes

Search period start: 02 September 2015 00:00
Search period end: 12 September 2015 00:00
Orbit: 705 x 725 km, 98.4° (Epoch: 01 September)

Date Brightness Start Highest point End Pass type
(mag) Time Alt. Az. Time Alt. Az. Time Alt. Az.
02 Sep 5.3 22:06:06 28° NNE 22:06:06 28° NNE 22:08:50 10° N visible
02 Sep 6.5 23:45:15 15° NW 23:45:15 15° NW 23:46:21 10° NW visible
03 Sep 6.0 21:14:12 12° NE 21:14:12 12° NE 21:15:34 10° NE visible
03 Sep 5.6 22:53:21 29° NNW 22:53:21 29° NNW 22:55:43 10° NNW visible
04 Sep 5.4 22:01:28 25° NNE 22:01:28 25° NNE 22:03:56 10° N visible
04 Sep 6.5 23:40:37 15° NW 23:40:37 15° NW 23:41:40 10° NW visible
05 Sep 6.1 21:09:34 11° NE 21:09:34 11° NE 21:10:14 10° NE visible
05 Sep 5.7 22:48:43 27° NNW 22:48:43 27° NNW 22:50:53 10° NNW visible
06 Sep 5.6 21:56:49 22° NNE 21:56:49 22° NNE 21:59:01 10° N visible
06 Sep 6.5 23:35:58 15° NW 23:35:58 15° NW 23:36:59 10° NW visible
07 Sep 5.8 22:44:04 25° N 22:44:04 25° N 22:46:03 10° NNW visible
08 Sep 5.7 21:52:11 20° NNE 21:52:11 20° NNE 21:54:05 10° N visible
08 Sep 6.6 23:31:20 15° NW 23:31:20 15° NW 23:32:16 10° NNW visible
09 Sep 5.9 22:39:26 23° N 22:39:26 23° N 22:41:14 10° N visible
10 Sep 5.9 21:47:32 17° NNE 21:47:32 17° NNE 21:49:08 10° NNE visible
10 Sep 6.6 23:26:41 15° NW 23:26:41 15° NW 23:27:32 10° NNW visible
11 Sep 6.0 22:34:47 21° N 22:34:47 21° N 22:36:23 10° N visible
